Flag for Switzerland Weather past 2 weeks in Uster, Zurich, Switzerland

Now
54 °F

Cool.


Feels Like: 50 °F
Forecast: 37 / 46 °F
Wind: 12 mph from Southwest

Location: Zurich Town / Ville.

Current Time: Dec 19, 2014 at 3:47:41 PM

Latest Report: Dec 19, 2014 at 3:00 PM


Visibility: N/A

Pressure: 30.16 "Hg

Humidity: 65%

Dew point: 42 °F

Location of UsterLocation

Historic Weather in Uster — Graph

°F

Uster temperature yesterday

Maximum temperature yesterday: 51 °F (at 9:00 PM)
Minimum temperature yesterday: 40 °F (at 12:00 AM)
Average temperature yesterday: 45 °F

Past Weeks' High & Low Weather Summary

 TemperatureHumidityPressure
High54 °F (Dec 19, 2:00 PM)100% (Dec 9, 2:00 AM)30.47 "Hg (Dec 9, 2:00 AM)
Low30 °F (Dec 10, 2:00 AM)43% (Dec 13, 1:00 PM)29.87 "Hg (Dec 12, 8:00 PM)
Average40 °F82%30.12 "Hg
* Reported Dec 4 2:00 PM — Dec 19 2:00 PM, Uster, Weather by CustomWeather, © 2014

Note: Actual official high and low records may vary slightly from our data, if they occured in-between our weather recording intervals... More about our weather records

Advertising

Uster weather history for previous 24 hours

 ConditionsComfort  
Time TempWeatherWind HumidityBarometerVisibility
2:00 PM
Dec 19
54 °FCool.10 mph65%30.17 "HgN/A
1:00 PM54 °FCool.12 mph67%30.19 "HgN/A
12:00 PM51 °FCool.12 mph72%30.21 "HgN/A
11:00 AM51 °FCool.12 mph73%30.22 "HgN/A
10:00 AM50 °FCool.13 mph75%30.22 "HgN/A
9:00 AM47 °FCool.8 mph84%30.24 "HgN/A
8:00 AM47 °FCool.8 mph84%30.23 "HgN/A
7:00 AM47 °FCool.7 mph85%30.24 "HgN/A
6:00 AM47 °FCool.8 mph85%30.24 "HgN/A
5:00 AM47 °FCool.7 mph87%30.24 "HgN/A
3:00 AM48 °FCool.8 mph84%30.26 "HgN/A
2:00 AM47 °FCool.8 mph88%30.26 "HgN/A
1:00 AM48 °FCool.10 mph86%30.25 "HgN/A
12:00 AM49 °FCool.10 mph84%30.26 "HgN/A
11:00 PM
Dec 18
49 °FCool.8 mph86%30.26 "HgN/A
9:00 PM51 °FCool.10 mph83%30.23 "HgN/A
8:00 PM50 °FCool.8 mph86%30.22 "HgN/A
7:00 PM50 °FCool.16 mph85%30.20 "HgN/A
6:00 PM49 °FCool.12 mph91%30.20 "HgN/A
5:00 PM49 °FCool.15 mph89%30.19 "HgN/A
4:00 PM48 °FCool.16 mph89%30.17 "HgN/A
3:00 PM47 °FCool.13 mph92%30.16 "HgN/A
Weather by CustomWeather, © 2014

See weather overviewHow to use our weather pages